Location: Unspecified
(35.6961°N, 0.0000°E)
Time: 20:51:00
(UTC+00:00)

Altair - Pass Details

Date: 23 May 2019
Orbit: 1501 x 1683 km, 47.2° (Epoch: 18 June)

Event Time Altitude Azimuth Distance (km) Brightness Sun altitude
Rises 01:11:15 0° 186° (S) 4,842 - -31.1°
Reaches altitude 10° 01:15:14 10° 172° (S) 3,884 - -30.8°
Exits shadow 01:20:43 22° 139° (SE) 3,063 8.8 -30.4°
Maximum altitude 01:22:28 23° 125° (SE) 3,010 8.9 -30.3°
Drops below altitude 10° 01:29:46 10° 78° (ENE) 3,945 10.0 -29.6°
Sets 01:33:49 0° 65° (ENE) 4,937 10.9 -29.3°
